Location: Krasnoyarskiy Pitomnik
(51.1333°N, 71.6167°E)
Time: 09:06:56
(UTC+00:00)

Cosmos 2333 - Pass Details

Date: 22 October 2021
Orbit: 829 x 866 km, 70.9° (Epoch: 06 December)

Event Time Altitude Azimuth Distance (km) Brightness Sun altitude
Exits shadow 23:42:21 - 331° (NNW) 3,129 6.9 -20.7°
Reaches altitude 10° 23:44:00 10° 332° (NNW) 2,504 6.5 -20.4°
Maximum altitude 23:49:46 73° 57° (ENE) 905 4.4 -19.5°
Drops below altitude 10° 23:55:32 10° 143° (SE) 2,504 7.1 -18.6°
Sets 23:58:00 0° 145° (SE) 3,439 7.8 -18.2°
